[[{"header":{"parameterUnit":"m.s-1","parameterCategory":1,"la1":30.2991,"la2":30.254,"lo1":-89.0895,"lo2":-89.0444,"dy":0.0017,"dx":0.0017,"nx":28,"ny":28,"refTime":"2025-04-28T09:00:00:Z","depth":0,"parameterNumber":2,"parameterNumberName":"U-component_of_WINDS"},"data":[0,0,0,0,0,0,0,0,0,0,0,0,0,0,0,0,0,0,0,0,0,0,0,0,0,0,0,0,0,0,0,0,0,0,0,0,0,0,0,0,0,0,0,0,0,0,0,0,0,0,0,0,0,0,0,0,0,0,-1.7583,-1.7583,0,-1.7636,-1.7637,-1.7637,-1.7624,-1.7623,-1.7622,-1.7621,-1.7678,-1.7681,-1.7683,0,0,0,0,0,0,0,0,0,0,0,0,0,-1.7473,-1.7475,-1.7583,-1.7583,-1.7584,-1.7636,-1.7637,-1.7637,-1.7624,-1.7623,-1.7621,-1.762,-1.7678,-1.7681,-1.7684,0,0,0,0,0,0,0,0,0,0,0,0,0,-1.7523,-1.7476,-1.7583,-1.7583,-1.7584,-1.7636,-1.7637,-1.7638,-1.7624,-1.7623,-1.7621,-1.762,-1.7677,-1.768,-1.7684,-1.7739,0,0,-1.7696,-1.7697,0,0,0,0,0,0,0,0,-1.752,-1.7527,-1.7583,-1.7584,-1.7584,-1.7622,-1.7619,-1.7672,-1.7625,-1.7609,-1.7621,-1.7619,-1.7661,-1.7666,-1.768,-1.7742,-1.7744,-1.7696,-1.7698,-1.77,-1.7701,0,0,0,0,0,0,0,-1.7517,-1.7525,-1.7604,-1.7584,-1.7585,-1.7583,-1.7588,-1.7629,-1.7643,-1.761,-1.7609,-1.7616,-1.7661,-1.7676,-1.7681,-1.7745,-1.7696,-1.7699,-1.7701,-1.7703,-1.7856,-1.7857,0,0,0,0,0,0,-1.7512,-1.7522,-1.7602,-1.7605,-1.7548,-1.7586,-1.7592,-1.7611,-1.7643,-1.7646,-1.7617,-1.7615,-1.767,-1.7676,-1.7683,-1.7749,-1.77,-1.7703,-1.7705,-1.7854,-1.7856,-1.7858,0,0,0,0,0,0,-1.751,-1.752,-1.76,-1.7564,-1.7574,-1.7589,-1.7611,-1.7613,-1.7628,-1.7648,-1.7651,-1.7629,-1.7669,-1.7677,-1.7725,-1.7751,-1.7705,-1.7708,-1.7852,-1.7855,-1.7857,-1.7882,0,0,0,0,0,0,-1.7507,-1.7519,-1.7539,-1.7564,-1.7576,-1.764,-1.7613,-1.7615,-1.7634,-1.7632,-1.766,-1.7663,-1.7669,-1.7719,-1.7729,-1.7755,-1.7711,-1.785,-1.7853,-1.7856,-1.7879,-1.7885,-1.7891,0,0,0,0,0,-1.7503,-1.7544,-1.754,-1.755,-1.7601,-1.7642,-1.7648,-1.7653,-1.7636,-1.7657,-1.767,-1.7662,-1.7747,-1.7724,-1.7735,-1.7763,-1.7848,-1.7852,-1.7856,-1.7876,-1.7884,-1.789,0,0,0,0,0,0,-1.7523,-1.7548,-1.7543,-1.7593,-1.7615,-1.7639,-1.7665,-1.7661,-1.7689,-1.7685,-1.7691,-1.7698,-1.7746,-1.776,-1.7734,-1.7818,-1.7795,-1.7802,-1.7807,-1.7814,-1.782,-1.7815,-1.7715,0,0,0,0,0,-1.7533,-1.7562,-1.7583,-1.7626,-1.7637,-1.765,-1.7668,-1.7669,-1.7693,-1.7702,-1.7719,-1.7743,-1.7775,-1.7796,-1.7826,-1.7882,-1.7888,-1.7906,-1.7912,-1.7917,-1.7922,-1.7952,-1.796,-1.7871,-1.7871,-1.7871,0,0,-1.7554,-1.7571,-1.759,-1.763,-1.7647,-1.7679,-1.7657,-1.7692,-1.7716,-1.7708,-1.7753,-1.7766,-1.7794,-1.7845,-1.7869,-1.7858,-1.7948,-1.7922,-1.7925,-1.7928,-1.7957,-1.7966,-1.7973,-1.7874,-1.7874,-1.7873,0,0,-1.7608,-1.7624,-1.7661,-1.7679,-1.7705,-1.7714,-1.7723,-1.7748,-1.7756,-1.7801,-1.7796,-1.7826,-1.7881,-1.79,-1.7917,-1.7981,-1.7975,-1.7991,-1.8021,-1.8051,-1.8058,-1.8064,-1.8086,-1.8094,-1.7997,-1.7997,-1.7997,0,-1.7631,-1.7678,-1.7681,-1.7716,-1.7735,-1.7728,-1.7766,-1.7784,-1.7819,-1.7833,-1.782,-1.7889,-1.7907,-1.7963,-1.7979,-1.7993,-1.8004,-1.7987,-1.8056,-1.8063,-1.8069,-1.809,-1.8098,-1.7998,-1.7998,-1.7998,-1.7998,0,-1.7705,-1.7738,-1.7765,-1.7798,-1.7819,-1.7856,-1.7866,-1.7888,-1.7889,-1.7899,-1.7946,-1.7968,-1.8002,-1.8016,-1.8017,-1.8073,-1.8065,-1.8055,-1.8032,-1.8079,-1.8099,-1.8107,-1.8001,-1.8,-1.8,-1.7999,0,0,-1.7771,-1.7806,-1.7816,-1.7831,-1.786,-1.7886,-1.7924,-1.7957,-1.7975,-1.8001,-1.8032,-1.808,-1.807,-1.809,-1.8093,-1.812,-1.8168,-1.8106,-1.8107,-1.8116,-1.8231,-1.8238,-1.8247,-1.8165,-1.8167,-1.8168,-1.8229,0,-1.7828,-1.7891,-1.7896,-1.7954,-1.7984,-1.7979,-1.8012,-1.8034,-1.8045,-1.8074,-1.8087,-1.812,-1.8105,-1.8117,-1.8142,-1.8157,-1.8191,-1.8153,-1.8195,-1.8197,-1.8187,-1.8258,-1.8265,-1.8321,-1.8237,-1.8238,-1.8239,0,-1.7901,-1.7928,-1.7988,-1.8013,-1.8026,-1.8055,-1.8086,-1.8113,-1.8139,-1.8145,-1.8168,-1.8168,-1.8208,-1.8184,-1.8239,-1.8213,-1.8231,-1.8241,-1.8244,-1.8247,-1.8219,-1.8262,-1.8339,-1.8347,-1.8252,-1.8251,-1.825,0,-1.7943,-1.7994,-1.8036,-1.805,-1.808,-1.8101,-1.8115,-1.8139,-1.8159,-1.8187,-1.82,-1.8233,-1.8251,-1.8277,-1.8286,-1.8269,-1.8341,-1.8319,-1.8348,-1.8348,-1.8362,-1.8361,-1.8442,-1.8376,-1.8376,-1.8375,-1.8375,0,-1.8005,-1.8042,-1.8055,-1.8081,-1.8123,-1.813,-1.8171,-1.8185,-1.8206,-1.8236,-1.8235,-1.8263,-1.8275,-1.8305,-1.8313,-1.8358,-1.8366,-1.8373,-1.8374,-1.8372,-1.8371,-1.8383,-1.8379,-1.8378,-1.8377,-1.8377,-1.8376,0,-1.8057,-1.8068,-1.8114,-1.8139,-1.8146,-1.8176,-1.8198,-1.8224,-1.8235,-1.8273,-1.8282,-1.83,-1.8336,-1.8349,-1.8393,-1.8398,-1.8449,-1.8448,-1.844,-1.844,-1.8468,-1.8465,-1.8559,-1.8571,-1.8498,-1.8499,-1.8499,0,-1.8095,-1.8123,-1.8151,-1.817,-1.8185,-1.8216,-1.8236,-1.8244,-1.8266,-1.8298,-1.832,-1.8355,-1.8384,-1.8442,-1.8459,-1.8493,-1.8492,-1.8523,-1.8497,-1.8494,-1.8492,-1.849,-1.8493,-1.8527,-1.8528,-1.8529,-1.8529,0,-1.8161,-1.8165,-1.8193,-1.8224,-1.8247,-1.8272,-1.8296,-1.8313,-1.8325,-1.8349,-1.8385,-1.8407,-1.8452,-1.8487,-1.8522,-1.8538,-1.8536,-1.8537,-1.8546,-1.8543,-1.8537,-1.854,-1.8452,-1.8535,-1.8534,-1.8534,-1.8533,-1.8533,-1.8207,-1.8232,-1.8255,-1.8287,-1.8306,-1.8329,-1.8354,-1.8368,-1.8398,-1.8434,-1.8438,-1.8477,-1.8503,-1.8549,-1.8567,-1.8599,-1.859,-1.8603,-1.8606,-1.8608,-1.861,-1.8533,-1.8605,-1.8605,-1.8605,-1.8605,-1.8605,0,-1.8272,-1.8287,-1.8317,-1.835,-1.8375,-1.837,-1.8397,-1.8419,-1.8452,-1.8477,-1.8505,-1.8547,-1.8581,-1.8602,-1.8637,-1.8658,-1.8658,-1.8667,-1.8665,-1.8669,-1.8616,-1.8604,-1.8667,-1.8667,-1.8667,-1.8667,-1.8667,-1.8667,-1.8309,-1.8351,-1.8358,-1.8409,-1.8425,-1.8461,-1.8477,-1.8498,-1.8518,-1.8564,-1.8592,-1.8605,-1.8629,-1.8665,-1.8697,-1.8703,-1.8715,-1.8725,-1.873,-1.8679,-1.8673,-1.8667,-1.8656,-1.8728,-1.8728,-1.878,-1.878,-1.8781]},{"header":{"parameterUnit":"m.s-1","parameterCategory":1,"la1":30.2991,"la2":30.254,"lo1":-89.0895,"lo2":-89.0444,"dy":0.0017,"dx":0.0017,"nx":28,"ny":28,"refTime":"2025-04-28T09:00:00:Z","depth":0,"parameterNumber":3,"parameterNumberName":"V-component_of_WINDS"},"data":[0,0,0,0,0,0,0,0,0,0,0,0,0,0,0,0,0,0,0,0,0,0,0,0,0,0,0,0,0,0,0,0,0,0,0,0,0,0,0,0,0,0,0,0,0,0,0,0,0,0,0,0,0,0,0,0,0,0,3.4458,3.4458,0,3.4491,3.4492,3.4492,3.4459,3.4458,3.4457,3.4455,3.4486,3.4488,3.449,0,0,0,0,0,0,0,0,0,0,0,0,0,3.4363,3.4365,3.4458,3.4459,3.4459,3.4491,3.4492,3.4492,3.4459,3.4458,3.4456,3.4455,3.4485,3.4488,3.449,0,0,0,0,0,0,0,0,0,0,0,0,0,3.4401,3.4366,3.4458,3.4447,3.4446,3.4491,3.4492,3.4492,3.446,3.4458,3.4456,3.4454,3.4485,3.4488,3.4491,3.4548,0,0,3.45,3.4501,0,0,0,0,0,0,0,0,3.4399,3.4405,3.4448,3.4448,3.4447,3.4469,3.4469,3.4511,3.446,3.4454,3.4455,3.4453,3.4482,3.4485,3.4495,3.4549,3.455,3.45,3.4502,3.4503,3.4504,0,0,0,0,0,0,0,3.4397,3.4403,3.4471,3.4449,3.4448,3.4439,3.4442,3.4477,3.4478,3.4455,3.4453,3.4457,3.4481,3.4492,3.4496,3.4551,3.45,3.4503,3.4504,3.4506,3.4653,3.4655,0,0,0,0,0,0,3.4396,3.4401,3.447,3.4472,3.4418,3.4442,3.4446,3.4464,3.4478,3.4478,3.4459,3.4455,3.4488,3.4492,3.4497,3.4564,3.4503,3.4506,3.4508,3.4651,3.4653,3.4656,0,0,0,0,0,0,3.4394,3.4402,3.4469,3.4436,3.4444,3.4446,3.4466,3.4466,3.4477,3.4481,3.4481,3.447,3.4487,3.4492,3.4535,3.4565,3.4507,3.451,3.4648,3.4652,3.4655,3.4701,0,0,0,0,0,0,3.4391,3.4402,3.4424,3.4437,3.4446,3.4508,3.4468,3.4468,3.4483,3.4479,3.4492,3.4492,3.4486,3.4531,3.4538,3.4568,3.4512,3.4646,3.465,3.4654,3.4696,3.4705,3.4712,0,0,0,0,0,3.4388,3.4435,3.4425,3.4434,3.4474,3.451,3.4515,3.4508,3.4485,3.4507,3.451,3.4492,3.4561,3.4536,3.4544,3.4575,3.4644,3.4649,3.4653,3.4693,3.4703,3.4712,0,0,0,0,0,0,3.4424,3.4436,3.4426,3.4479,3.4494,3.4504,3.4532,3.4519,3.4539,3.4535,3.4524,3.4527,3.4573,3.4578,3.455,3.4631,3.4598,3.4605,3.4626,3.4636,3.4644,3.4641,3.4515,0,0,0,0,0,3.4439,3.4468,3.4476,3.4522,3.453,3.453,3.4545,3.4539,3.4553,3.4559,3.4564,3.4578,3.4603,3.462,3.4643,3.4697,3.4699,3.4722,3.473,3.4737,3.4742,3.4772,3.4782,3.4671,3.4671,3.4671,0,0,3.4468,3.4478,3.4497,3.453,3.454,3.457,3.4535,3.4568,3.4589,3.4563,3.4605,3.4609,3.4624,3.4673,3.4695,3.4679,3.4774,3.4743,3.4748,3.475,3.4778,3.4788,3.4797,3.4674,3.4674,3.4673,0,0,3.4537,3.4548,3.4588,3.4599,3.4617,3.4616,3.4626,3.4639,3.4641,3.4683,3.4664,3.4689,3.4732,3.4743,3.4754,3.4829,3.4812,3.4836,3.4877,3.4906,3.4915,3.4922,3.4949,3.4958,3.4842,3.4842,3.4842,0,3.4571,3.4616,3.4609,3.4643,3.4658,3.4637,3.4677,3.4688,3.4711,3.4721,3.4703,3.4757,3.4766,3.4817,3.4835,3.4845,3.4855,3.4835,3.4914,3.4922,3.4929,3.4954,3.4964,3.4845,3.4844,3.4844,3.4844,0,3.4657,3.4689,3.4718,3.4743,3.4761,3.4798,3.4795,3.4814,3.4806,3.4807,3.4849,3.4859,3.4884,3.4895,3.4887,3.4946,3.4935,3.4916,3.4883,3.4942,3.4966,3.4975,3.4849,3.4848,3.4847,3.4846,0,0,3.475,3.4771,3.4782,3.4793,3.4811,3.4834,3.4869,3.4895,3.4911,3.4928,3.4957,3.4994,3.4977,3.499,3.4983,3.5008,3.5066,3.4985,3.4985,3.5,3.5131,3.5145,3.5157,3.5055,3.5057,3.5059,3.513,0,3.482,3.4883,3.4877,3.4937,3.4965,3.4946,3.4977,3.499,3.4993,3.5016,3.5018,3.5045,3.5019,3.5027,3.5051,3.5054,3.5092,3.5049,3.5082,3.5083,3.5079,3.5169,3.5184,3.5251,3.5139,3.514,3.5141,0,3.4909,3.4931,3.4993,3.5007,3.5019,3.5047,3.507,3.5093,3.5108,3.5108,3.5123,3.5112,3.5146,3.5113,3.5161,3.5131,3.5144,3.5148,3.515,3.5153,3.5116,3.5174,3.5272,3.5282,3.5156,3.5154,3.5153,0,3.4971,3.5015,3.5059,3.5068,3.5086,3.5106,3.5113,3.5127,3.5142,3.5162,3.5172,3.5195,3.5208,3.5225,3.522,3.5197,3.5269,3.5235,3.5269,3.5269,3.5285,3.5284,3.5387,3.5294,3.5294,3.5293,3.5293,0,3.5049,3.5088,3.5087,3.5113,3.5156,3.5149,3.5191,3.5196,3.5208,3.5235,3.5219,3.5244,3.5236,3.526,3.5256,3.5296,3.5302,3.5302,3.5301,3.5304,3.5304,3.5312,3.5308,3.5296,3.5296,3.5295,3.5295,0,3.5125,3.5126,3.5172,3.5184,3.5188,3.522,3.523,3.5254,3.5255,3.5289,3.5297,3.5298,3.5326,3.5323,3.5354,3.5351,3.5401,3.5394,3.5396,3.5395,3.5429,3.5426,3.554,3.5555,3.5453,3.5454,3.5454,0,3.5176,3.5205,3.5222,3.5239,3.5249,3.5276,3.5293,3.5287,3.5304,3.5324,3.5346,3.5373,3.5394,3.5439,3.5442,3.5466,3.5459,3.5497,3.5462,3.5465,3.546,3.5458,3.5461,3.5504,3.5506,3.5506,3.5507,0,3.5265,3.5264,3.5288,3.5314,3.5334,3.5353,3.537,3.5385,3.538,3.5401,3.543,3.5446,3.5478,3.5505,3.5527,3.5534,3.552,3.5518,3.5527,3.5531,3.5531,3.5532,3.5415,3.5516,3.5515,3.5514,3.5514,3.5513,3.5329,3.5355,3.5371,3.5399,3.5412,3.5428,3.5452,3.5457,3.5481,3.5508,3.5502,3.5535,3.5549,3.5578,3.5587,3.5612,3.5597,3.5611,3.5614,3.5617,3.5622,3.5528,3.5616,3.5615,3.5615,3.5615,3.5615,0,3.5418,3.5427,3.5453,3.5479,3.5501,3.5487,3.5505,3.5524,3.5553,3.5568,3.559,3.5623,3.5649,3.5654,3.5678,3.5697,3.5691,3.5704,3.5702,3.5704,3.5633,3.5622,3.5708,3.5708,3.5708,3.5708,3.5708,3.5708,3.5466,3.5509,3.551,3.5559,3.5567,3.56,3.5612,3.5627,3.5639,3.5677,3.5699,3.5703,3.5713,3.5739,3.5761,3.5762,3.5772,3.5787,3.5785,3.5719,3.5709,3.57,3.5691,3.5789,3.5789,3.5855,3.5855,3.5856]}]]